Terminal Aerodrome Forecast
Issued by NWS

Home | Current Version | Previous Version | Text Only | Print | Product List | Glossary On
Versions: 1 2 3 4 5 6 7 8 9 10 11 12 13 14
000
FTUS43 KPAH 192300
TAFCGI
TAF
KCGI 192340Z 2000/2024 00000KT P6SM SKC
     FM200500 00000KT 4SM BR SKC
      TEMPO 2008/2012 2SM BR
     FM201500 21007KT P6SM SCT040=

USA.gov is the U.S. government's official web portal to all federal, state and local government web resources and services.